Regional Weather Roundup
Issued by NWS Charleston, WV

Home | Current Version | Previous Version | Graphics & Text | Print | Product List | Glossary On
Versions: 1 2 3 4 5 6 7 8 9 10 11 12 13 14 15 16 17 18 19 20 21 22 23 24 25 26 27 28 29 30 31 32 33 34 35 36 37 38 39 40 41 42 43 44 45 46 47 48 49 50
818
ASUS41 KRLX 241210
RWRRLX
West Virginia Regional Weather Roundup
National Weather Service Charleston WV
700 AM EST TUE JAN 24 2017

Note: "fair" indicates few or no clouds below 12,000 feet with no
significant weather and/or obstructions to visibility.

WVZ003-241300-
Northern Panhandle of West Virginia

CITY           SKY/WX    TMP DP  RH WIND       PRES   REMARKS
WHEELING       CLOUDY    35  34  96 W7        29.65R
$$

WVZ009-241300-
Northwest West Virginia

CITY           SKY/WX    TMP DP  RH WIND       PRES   REMARKS
PARKERSBURG    LGT RAIN  39  36  89 W5        29.72S
$$

WVZ006-241300-
Western West Virginia

CITY           SKY/WX    TMP DP  RH WIND       PRES   REMARKS
HUNTINGTON     CLOUDY    43  40  89 NW9       29.73R
$$

WVZ015-241300-
West Central West Virginia

CITY           SKY/WX    TMP DP  RH WIND       PRES   REMARKS
CHARLESTON     LGT RAIN  40  37  89 W3        29.71R
$$

WVZ022-031-241300-
North Central West Virginia

CITY           SKY/WX    TMP DP  RH WIND       PRES   REMARKS
CLARKSBURG     LGT RAIN  36  34  92 W5        29.66R FOG
MORGANTOWN     MIX PCPN  35  33  92 VRB3      29.65R
$$

WVZ025-035-042-045-241300-
Southern West Virginia

CITY           SKY/WX    TMP DP  RH WIND       PRES   REMARKS
BECKLEY        MIX PCPN  36  35  96 W10       29.64R FOG
LOGAN          LGT RAIN  41  41 100 NW5G12    29.70R
BLUEFIELD      CLOUDY    37  35  92 NW12G20   29.63R
LEWISBURG      CLOUDY    35  32  88 W5        29.60R
$$

WVZ047-241300-
Northern Mountains of West Virginia

CITY           SKY/WX    TMP DP  RH WIND       PRES   REMARKS
ELKINS         LGT SNOW  33  30  88 CALM      29.63R FOG
$$

WVZ052-241300-
Eastern Panhandle of West Virginia

CITY           SKY/WX    TMP DP  RH WIND       PRES   REMARKS
MARTINSBURG    CLOUDY    38  32  79 NW13      29.54R
PETERSBURG     MIX PCPN  37  35  93 CALM      29.59R
$$




USA.gov is the U.S. government's official web portal to all federal, state and local government web resources and services.